DW4691 Weather Reports


time (UTC)temp
F
wind
direction
speed
knots
gust
knots
rain 1hr
in
rain 24hr
in
rain mn
in
humidity
%
barometer
mb
20260504223047 80 0 0.0 3.5 0.00 0.00 0.00 64 1010.7
20260504221546 81 151 0.0 4.3 0.00 0.00 0.00 63 1010.9
20260504220052 81 0 0.0 3.5 0.00 0.00 0.00 63 1011.0
20260504214552 82 0 0.0 1.7 0.00 0.00 0.00 62 1011.0
20260504213058 82 0 0.0 1.7 0.00 0.00 0.00 62 1011.3
20260504211547 82 0 0.0 3.5 0.00 0.00 0.00 60 1011.5
20260504210057 83 0 0.0 3.5 0.00 0.00 0.00 57 1011.7
20260504204558 84 0 0.0 2.6 0.00 0.00 0.00 56 1011.9
20260504203049 83 82 0.0 1.7 0.00 0.00 0.00 56 1012.1
20260504201547 82 0 0.0 2.6 0.00 0.00 0.00 59 1012.5
20260504200047 81 0 0.0 5.2 0.00 0.00 0.00 59 1012.8
20260504194545 81 168 0.0 2.6 0.00 0.00 0.00 60 1013.1
20260504193044 81 134 0.0 3.5 0.00 0.00 0.00 58 1013.1
20260504191553 81 0 0.0 4.3 0.00 0.00 0.00 58 1013.2
20260504190052 81 0 0.0 1.7 0.00 0.00 0.00 58 1013.6
20260504184546 81 0 0.0 1.7 0.00 0.00 0.00 62 1013.7
20260504183045 81 121 0.0 4.3 0.00 0.00 0.00 56 1013.9
20260504181550 81 0 0.0 4.3 0.00 0.00 0.00 56 1013.9
20260504180106 80 140 0.9 3.5 0.00 0.00 0.00 59 1014.2
20260504174547 80 0 0.0 3.5 0.00 0.00 0.00 59 1014.3
20260504173058 79 0 0.0 3.5 0.00 0.00 0.00 61 1014.3
20260504171543 79 0 0.0 5.2 0.00 0.00 0.00 60 1014.5
20260504081556 59 0 0.0 0.0 0.00 0.00 0.00 85 1016.2
20260504044552 63 0 0.0 0.0 0.00 0.00 0.00 74 1018.2
20260504043053 64 0 0.0 0.0 0.00 0.00 0.00 72 1018.4
20260504041551 65 0 0.0 0.0 0.00 0.00 0.00 71 1018.3
20260504040053 65 0 0.0 0.0 0.00 0.00 0.00 68 1018.4
20260504034557 66 0 0.0 0.0 0.00 0.00 0.00 67 1018.2
20260504033048 67 0 0.0 0.0 0.00 0.00 0.00 64 1018.3
20260504031543 67 0 0.0 0.0 0.00 0.00 0.00 62 1018.2
20260504030051 67 0 0.0 0.0 0.00 0.00 0.00 62 1018.0
20260504024553 68 0 0.0 0.0 0.00 0.00 0.00 63 1018.0
20260504023046 68 0 0.0 0.9 0.00 0.00 0.00 62 1017.9
20260504021549 68 0 0.0 0.0 0.00 0.00 0.00 63 1017.8
20260504020044 69 0 0.0 0.0 0.00 0.00 0.00 62 1017.6
20260504014541 69 0 0.0 0.0 0.00 0.00 0.00 61 1017.4
20260504013107 70 0 0.0 0.0 0.00 0.00 0.00 57 1017.3
20260504011548 71 0 0.0 0.0 0.00 0.00 0.00 57 1017.2
20260504010044 71 0 0.0 0.0 0.00 0.00 0.00 55 1017.3
20260504004545 73 0 0.0 0.0 0.00 0.00 0.00 55 1017.3
20260504003047 74 0 0.0 0.0 0.00 0.00 0.00 53 1017.3
20260504001550 76 0 0.0 0.9 0.00 0.00 0.00 47 1017.3
20260504000053 77 0 0.0 2.6 0.00 0.00 0.00 47 1017.3
20260503234548 78 0 0.0 0.0 0.00 0.00 0.00 47 1017.5
20260503233053 78 0 0.0 0.0 0.00 0.00 0.00 42 1017.5
20260503231546 79 0 0.0 0.0 0.00 0.00 0.00 43 1017.5
20260503230045 79 0 0.0 0.9 0.00 0.00 0.00 44 1017.6
20260503224541 80 0 0.0 1.7 0.00 0.00 0.00 40 1017.8